EST,Max TemperatureF,Mean TemperatureF,Min TemperatureF,Max Dew PointF,MeanDew PointF,Min DewpointF,Max Humidity, Mean Humidity, Min Humidity, Max Sea Level PressureIn, Mean Sea Level PressureIn, Min Sea Level PressureIn, Max VisibilityMiles, Mean VisibilityMiles, Min VisibilityMiles, Max Wind SpeedMPH, Mean Wind SpeedMPH, Max Gust SpeedMPH,PrecipitationIn, CloudCover, Events, WindDirDegrees
2013-12-1,40,37,34,28,26,23,70,65,59,30.17,30.05,29.96,10,10,10,20,8,25,T,6,,193
2013-12-2,38,33,28,34,29,25,85,78,70,29.96,29.92,29.88,10,9,2,9,2,10,0.00,7,,157
2013-12-3,43,34,25,35,27,22,92,74,55,29.97,29.93,29.90,10,9,7,12,3,14,0.00,5,,70
2013-12-4,56,49,41,42,38,35,76,66,55,29.98,29.90,29.80,10,10,10,24,10,31,T,4,,159
2013-12-5,64,49,33,53,40,30,83,72,61,30.09,29.90,29.74,10,9,1,25,15,35,0.08,7,Rain-Snow,241
2013-12-6,35,32,28,32,26,21,89,75,61,30.32,30.20,30.07,10,5,1,13,7,20,0.21,8,Snow,292
2013-12-7,30,27,24,25,16,11,78,67,55,30.61,30.47,30.30,10,9,3,15,8,21,T,8,Snow,272
2013-12-8,30,26,22,23,16,13,77,65,53,30.59,30.41,30.09,10,10,8,22,8,31,T,7,Snow,142
2013-12-9,37,33,28,32,25,17,89,75,61,30.10,30.00,29.89,10,10,3,22,13,31,0.02,8,Rain-Snow,218
2013-12-10,28,26,23,19,15,3,81,59,37,30.17,30.04,29.96,10,5,0,29,15,37,0.06,8,Snow,233
2013-12-11,25,22,19,20,16,6,92,75,57,30.38,30.24,30.15,10,3,0,22,15,31,0.25,8,Fog-Snow,236
2013-12-12,20,17,14,10,7,1,73,59,45,30.41,30.33,30.17,10,5,0,24,15,31,0.04,8,Snow,235
2013-12-13,29,24,19,22,15,6,81,69,56,30.32,30.20,30.13,10,6,1,21,12,25,0.05,8,Snow,212
2013-12-14,33,26,19,30,21,15,92,85,77,30.32,30.05,29.66,10,2,0,16,8,20,0.67,8,Fog-Snow,64
2013-12-15,32,26,20,30,21,10,92,80,68,29.98,29.79,29.62,10,2,0,23,13,36,0.51,8,Fog-Snow,259
2013-12-16,22,15,8,16,12,5,92,77,62,30.18,30.08,29.98,10,4,0,23,7,33,0.16,7,Snow,215
2013-12-17,27,22,17,23,19,9,88,78,68,30.03,29.95,29.88,10,5,1,20,13,28,0.08,8,Snow,200
2013-12-18,30,28,26,25,21,14,84,71,57,30.13,30.04,29.96,10,5,1,24,13,31,0.11,7,Snow,221
2013-12-19,44,36,28,31,24,15,62,55,47,30.03,29.99,29.94,10,10,10,26,12,33,0.00,4,,201
2013-12-20,54,49,43,50,40,32,89,74,58,29.94,29.86,29.78,10,9,6,26,17,36,0.51,8,Rain,200
2013-12-21,57,47,36,54,43,34,96,88,80,29.83,29.78,29.64,10,4,0,26,12,33,1.72,8,Fog-Rain,303
2013-12-22,62,48,33,54,40,30,100,86,72,29.99,29.74,29.49,10,9,2,35,12,47,0.52,8,Rain,246
2013-12-23,39,35,30,36,28,18,92,75,58,30.30,30.13,29.97,10,9,5,17,10,24,0.01,8,Rain-Snow,256
2013-12-24,30,25,19,24,16,9,88,74,60,30.53,30.35,30.22,10,3,0,20,12,28,0.31,8,Fog-Snow,276
2013-12-25,27,22,16,16,11,9,80,67,54,30.51,30.40,30.17,10,9,2,17,8,22,0.03,8,Snow,175
2013-12-26,32,29,26,27,23,17,92,78,63,30.33,30.18,30.06,10,4,0,23,12,32,0.27,8,Fog-Snow,233
2013-12-27,39,32,25,29,25,16,85,74,63,30.33,30.27,30.15,10,7,2,22,9,29,0.02,6,Snow,218
2013-12-28,48,43,38,32,28,25,64,57,49,30.16,30.08,29.98,10,10,10,25,14,35,0.00,2,,213
2013-12-29,45,37,28,37,28,21,89,65,40,29.96,29.80,29.67,10,9,3,18,11,28,0.01,6,Rain,247
2013-12-30,28,23,18,23,14,7,81,69,56,30.26,30.11,29.89,10,8,2,18,9,26,0.01,8,Rain-Snow,284
2013-12-31,22,20,18,18,13,8,91,77,62,30.31,30.15,30.00,10,2,0,28,15,38,0.31,8,Fog-Snow,230